Elkwood, VA

11:31 AM EST on February 23, 2017 (GMT -0500)
Culpeper Regional

Weather History for KCJR - December, 2012

Change the Weather History Date:

Saturday, December 22, 2012

  Actual Average (KOMH) Record (KOMH)
Temperature  
Mean Temperature 36 °F -  
Max Temperature 48 °F 43 °F 75 °F (2013)
Min Temperature 24 °F 25 °F 0 °F (1989)
Degree Days  
Heating Degree Days 29    
Moisture  
Dew Point 19 °F    
Average Humidity 47    
Maximum Humidity 80    
Minimum Humidity 30    
Precipitation  
Precipitation 0.00 in - - ()
Sea Level Pressure  
Sea Level Pressure 29.86 in    
Wind  
Wind Speed 10 mph (WNW)    
Max Wind Speed 21 mph    
Max Gust Speed 32 mph    
Visibility 10 miles    
Events      
Averages and records for this station are not official NWS values.
T = Trace of Precipitation, MM = Missing Value Source: NWS Daily Summary

Daily Weather History Graph

Daily Weather History Graph

Search for Another Location

Airport or City:

Trip Planner

Search our weather history database for the weather conditions in past years. The results will help you decide how hot, cold, wet, or windy it might be!

Date:

Astronomy

Dec. 22, 2012 Rise Set
Actual Time 7:26 AM EST 4:54 PM EST
Civil Twilight 6:56 AM EST 5:24 PM EST
Nautical Twilight 6:22 AM EST 5:57 PM EST
Astronomical Twilight 5:50 AM EST 6:30 PM EST
Moon 1:09 PM EST (12/22) 2:11 AM EST (12/22)
Length of Visible Light 10h 28m
Length of Day
9h 28m
Waxing Gibbous, 73% of the Moon is Illuminated
Dec 22
Waxing Gibbous
Dec 28
Full
Jan 4
Last Quarter
Jan 11
New
Jan 18
First Quarter

Hourly Weather History & Observations

Time (EST) Temp. Windchill Dew Point Humidity Pressure Visibility Wind Dir Wind Speed Gust Speed Precip Events Conditions
12:15 AM 39.2 °F 31.6 °F 19.4 °F 45% 29.61 in 10.0 mi WNW 12.7 mph - N/A   Clear
12:35 AM 39.2 °F 32.0 °F 19.4 °F 45% 29.60 in 10.0 mi West 11.5 mph 21.9 mph N/A   Clear
12:55 AM 39.2 °F 31.6 °F 19.4 °F 45% 29.61 in 10.0 mi West 12.7 mph 26.5 mph N/A   Clear
1:15 AM 39.2 °F 33.0 °F 19.4 °F 45% 29.62 in 10.0 mi WNW 9.2 mph - N/A   Clear
1:35 AM 39.2 °F 32.5 °F 19.4 °F 45% 29.63 in 10.0 mi WNW 10.4 mph 19.6 mph N/A   Clear
1:55 AM 39.2 °F 37.0 °F 19.4 °F 45% 29.64 in 10.0 mi West 3.5 mph 16.1 mph N/A   Clear
2:15 AM 39.2 °F 33.0 °F 17.6 °F 42% 29.65 in 10.0 mi WNW 9.2 mph 16.1 mph N/A   Mostly Cloudy
2:35 AM 39.2 °F 32.0 °F 17.6 °F 42% 29.65 in 10.0 mi WNW 11.5 mph 17.3 mph N/A   Scattered Clouds
2:55 AM 39.2 °F 32.0 °F 19.4 °F 45% 29.66 in 10.0 mi WNW 11.5 mph 19.6 mph N/A   Scattered Clouds
3:15 AM 39.2 °F 33.6 °F 19.4 °F 45% 29.67 in 10.0 mi NW 8.1 mph 18.4 mph N/A   Mostly Cloudy
3:35 AM 41.0 °F 35.8 °F 19.4 °F 42% 29.67 in 10.0 mi West 8.1 mph 26.5 mph N/A   Overcast
3:55 AM 41.0 °F 33.9 °F 19.4 °F 42% 29.68 in 10.0 mi WNW 12.7 mph 24.2 mph N/A   Overcast
4:15 AM 41.0 °F 37.1 °F 19.4 °F 42% 29.69 in 10.0 mi West 5.8 mph - N/A   Overcast
4:35 AM 41.0 °F 33.5 °F 21.2 °F 45% 29.70 in 10.0 mi WNW 13.8 mph 23.0 mph N/A   Overcast
4:55 AM 41.0 °F 35.2 °F 21.2 °F 45% 29.71 in 10.0 mi WNW 9.2 mph 24.2 mph N/A   Overcast
5:15 AM 41.0 °F 35.2 °F 21.2 °F 45% 29.73 in 10.0 mi WNW 9.2 mph 17.3 mph N/A   Overcast
5:35 AM 41.0 °F 34.3 °F 21.2 °F 45% 29.74 in 10.0 mi WNW 11.5 mph 23.0 mph N/A   Overcast
5:55 AM 41.0 °F 36.4 °F 21.2 °F 45% 29.75 in 10.0 mi WNW 6.9 mph - N/A   Overcast
6:15 AM 41.0 °F 33.9 °F 21.2 °F 45% 29.76 in 10.0 mi WNW 12.7 mph 21.9 mph N/A   Overcast
6:35 AM 39.2 °F 31.2 °F 21.2 °F 49% 29.77 in 10.0 mi WNW 13.8 mph 20.7 mph N/A   Overcast
6:55 AM 39.2 °F 30.5 °F 21.2 °F 49% 29.79 in 10.0 mi WNW 16.1 mph 23.0 mph N/A   Overcast
7:15 AM 39.2 °F 32.5 °F 21.2 °F 49% 29.80 in 10.0 mi NW 10.4 mph 21.9 mph N/A   Overcast
7:35 AM 39.2 °F 30.8 °F 21.2 °F 49% 29.82 in 10.0 mi WNW 15.0 mph 19.6 mph N/A   Overcast
7:55 AM 39.2 °F 32.5 °F 21.2 °F 49% 29.83 in 10.0 mi WNW 10.4 mph 17.3 mph N/A   Overcast
8:15 AM 39.2 °F 30.5 °F 21.2 °F 49% 29.84 in 10.0 mi NW 16.1 mph 25.3 mph N/A   Overcast
8:35 AM 39.2 °F 30.8 °F 21.2 °F 49% 29.85 in 10.0 mi WNW 15.0 mph 25.3 mph N/A   Mostly Cloudy
8:55 AM 39.2 °F 30.2 °F 19.4 °F 45% 29.86 in 10.0 mi WNW 17.3 mph 27.6 mph N/A   Scattered Clouds
9:15 AM 39.2 °F 29.8 °F 19.4 °F 45% 29.88 in 10.0 mi WNW 18.4 mph 26.5 mph N/A   Scattered Clouds
9:35 AM 39.2 °F 30.2 °F 19.4 °F 45% 29.89 in 10.0 mi WNW 17.3 mph 31.1 mph N/A   Scattered Clouds
9:55 AM 41.0 °F 33.5 °F 17.6 °F 39% 29.89 in 10.0 mi NW 13.8 mph 24.2 mph N/A   Clear
10:15 AM 42.8 °F 37.0 °F 19.4 °F 39% 29.90 in 10.0 mi NW 10.4 mph 24.2 mph N/A   Clear
10:35 AM 42.8 °F 35.8 °F 19.4 °F 39% 29.90 in 10.0 mi WNW 13.8 mph 27.6 mph N/A   Clear
10:55 AM 42.8 °F 34.0 °F 17.6 °F 36% 29.90 in 10.0 mi West 20.7 mph 32.2 mph N/A   Clear
11:15 AM 42.8 °F 35.8 °F 17.6 °F 36% 29.91 in 10.0 mi NW 13.8 mph 24.2 mph N/A   Clear
11:35 AM 44.6 °F 38.4 °F 17.6 °F 34% 29.91 in 10.0 mi NW 12.7 mph 23.0 mph N/A   Clear
11:55 AM 44.6 °F 38.1 °F 17.6 °F 34% 29.90 in 10.0 mi WNW 13.8 mph 25.3 mph N/A   Clear
12:15 PM 44.6 °F 37.8 °F 17.6 °F 34% 29.89 in 10.0 mi WNW 15.0 mph 28.8 mph N/A   Clear
12:35 PM 44.6 °F 37.4 °F 17.6 °F 34% 29.89 in 10.0 mi NW 16.1 mph 26.5 mph N/A   Clear
12:55 PM 46.4 °F 38.7 °F 17.6 °F 32% 29.89 in 10.0 mi WNW 20.7 mph 27.6 mph N/A   Clear
1:15 PM 46.4 °F 40.7 °F 17.6 °F 32% 29.89 in 10.0 mi NW 12.7 mph 26.5 mph N/A   Clear
1:35 PM 46.4 °F 40.1 °F 17.6 °F 32% 29.89 in 10.0 mi NW 15.0 mph 23.0 mph N/A   Clear
1:55 PM 46.4 °F 41.5 °F 17.6 °F 32% 29.88 in 10.0 mi WNW 10.4 mph 19.6 mph N/A   Clear
2:15 PM 48.2 °F - 19.4 °F 32% 29.89 in 10.0 mi WNW 10.4 mph - N/A   Clear
2:35 PM 48.2 °F - 17.6 °F 30% 29.88 in 10.0 mi NW 17.3 mph 21.9 mph N/A   Clear
2:55 PM 46.4 °F 41.1 °F 17.6 °F 32% 29.90 in 10.0 mi West 11.5 mph 19.6 mph N/A   Clear
3:15 PM 46.4 °F 41.9 °F 19.4 °F 34% 29.90 in 10.0 mi WNW 9.2 mph 17.3 mph N/A   Clear
3:35 PM 46.4 °F 40.4 °F 17.6 °F 32% 29.90 in 10.0 mi WNW 13.8 mph 20.7 mph N/A   Clear
3:55 PM 44.6 °F 38.1 °F 17.6 °F 34% 29.91 in 10.0 mi WNW 13.8 mph 25.3 mph N/A   Clear
4:15 PM 44.6 °F 40.2 °F 17.6 °F 34% 29.94 in 10.0 mi West 8.1 mph - N/A   Clear
4:35 PM 42.8 °F 40.1 °F 17.6 °F 36% 29.95 in 10.0 mi West 4.6 mph - N/A   Clear
4:55 PM 42.8 °F 38.0 °F 17.6 °F 36% 29.95 in 10.0 mi WNW 8.1 mph - N/A   Clear
5:15 PM 41.0 °F 36.4 °F 17.6 °F 39% 29.96 in 10.0 mi WNW 6.9 mph - N/A   Clear
5:35 PM 41.0 °F 39.0 °F 15.8 °F 36% 29.97 in 10.0 mi NNW 3.5 mph - N/A   Clear
5:55 PM 37.4 °F - 19.4 °F 48% 29.99 in 10.0 mi Calm Calm - N/A   Clear
6:15 PM 37.4 °F 34.9 °F 17.6 °F 45% 29.99 in 10.0 mi North 3.5 mph - N/A   Clear
6:35 PM 37.4 °F 32.1 °F 19.4 °F 48% 29.99 in 10.0 mi NNW 6.9 mph - N/A   Clear
6:55 PM 37.4 °F 32.8 °F 17.6 °F 45% 30.00 in 10.0 mi North 5.8 mph - N/A   Clear
7:15 PM 35.6 °F 30.7 °F 17.6 °F 48% 30.01 in 10.0 mi North 5.8 mph - N/A   Clear
7:35 PM 33.8 °F 27.7 °F 19.4 °F 56% 30.00 in 10.0 mi North 6.9 mph - N/A   Clear
7:55 PM 33.8 °F 28.6 °F 19.4 °F 56% 30.01 in 10.0 mi NNE 5.8 mph - N/A   Clear
8:15 PM 32.0 °F 27.5 °F 19.4 °F 60% 30.01 in 10.0 mi NNW 4.6 mph - N/A   Clear
8:35 PM 30.2 °F - 19.4 °F 64% 30.01 in 10.0 mi Calm Calm - N/A   Clear
8:55 PM 30.2 °F - 19.4 °F 64% 30.02 in 10.0 mi Calm Calm - N/A   Clear
9:15 PM 30.2 °F - 21.2 °F 69% 30.02 in 10.0 mi Calm Calm - N/A   Clear
9:35 PM 28.4 °F - 21.2 °F 74% 30.03 in 10.0 mi Calm Calm - N/A   Clear
9:55 PM 28.4 °F - 23.0 °F 80% 30.04 in 10.0 mi Calm Calm - N/A   Clear
10:15 PM 26.6 °F - 21.2 °F 80% 30.03 in 10.0 mi Calm Calm - N/A   Clear
10:35 PM 26.6 °F - 21.2 °F 80% 30.04 in 10.0 mi Calm Calm - N/A   Clear
10:55 PM 26.6 °F - 21.2 °F 80% 30.04 in 10.0 mi Calm Calm - N/A   Clear
11:15 PM 24.8 °F - 19.4 °F 80% 30.04 in 10.0 mi Calm Calm - N/A   Clear
11:35 PM 24.8 °F - 19.4 °F 80% 30.04 in 10.0 mi Calm Calm - N/A   Clear
11:55 PM 26.6 °F - 21.2 °F 80% 30.05 in 10.0 mi Calm Calm - N/A   Clear